EW5962 Weather Reports


Display with metric or nautical units.
time (UTC)temp
F
wind
direction
speed
MPH
gust
MPH
rain 1hr
in
rain 24hr
in
rain mn
in
humidity
%
barometer
mb
20260505233503 74 212 0.0 2.0 0.00 0.00 0.00 43 1011.4
20260505233011 74 181 0.0 2.0 0.00 0.00 0.00 43 1011.4
20260505232604 74 198 0.0 5.0 0.00 0.00 0.00 42 1011.4
20260505232002 74 202 0.0 5.0 0.00 0.00 0.00 42 1011.3
20260505231103 75 166 0.0 2.0 0.00 0.00 0.00 41 1011.2
20260505230502 75 167 0.0 7.0 0.00 0.00 0.00 40 1011.3
20260505230009 75 209 0.0 7.0 0.00 0.00 0.00 40 1011.2
20260505225603 76 194 0.0 1.0 0.00 0.00 0.00 40 1011.3
20260505225002 76 169 0.0 5.0 0.00 0.00 0.00 39 1011.4
20260505224508 76 190 0.0 10.0 0.00 0.00 0.00 39 1011.4
20260505224104 76 222 0.0 14.0 0.00 0.00 0.00 38 1011.5
20260505223502 76 185 0.0 9.0 0.00 0.00 0.00 39 1011.5
20260505223009 76 180 0.0 7.0 0.00 0.00 0.00 39 1011.4
20260505222603 77 186 0.0 4.0 0.00 0.00 0.00 39 1011.4
20260505222002 77 184 0.0 4.0 0.00 0.00 0.00 39 1011.5
20260505221509 77 224 0.0 10.0 0.00 0.00 0.00 39 1011.6
20260505221103 77 191 0.0 10.0 0.00 0.00 0.00 38 1011.6
20260505220502 77 148 1.0 12.0 0.00 0.00 0.00 37 1011.7
20260505220009 77 151 1.0 12.0 0.00 0.00 0.00 38 1011.8
20260505215604 77 196 0.0 5.0 0.00 0.00 0.00 36 1011.8
20260505215003 78 176 0.0 14.0 0.00 0.00 0.00 37 1011.6
20260505214508 78 194 3.0 14.0 0.00 0.00 0.00 37 1011.7
20260505214102 78 195 1.0 14.0 0.00 0.00 0.00 38 1011.7
20260505213502 78 217 0.0 9.0 0.00 0.00 0.00 38 1011.7
20260505213019 78 221 2.0 11.0 0.00 0.00 0.00 39 1011.7
20260505212603 78 205 3.0 11.0 0.00 0.00 0.00 40 1011.5
20260505212003 78 198 1.0 10.0 0.00 0.00 0.00 38 1011.5
20260505211509 78 174 0.0 11.0 0.00 0.00 0.00 40 1011.6
20260505211106 79 164 1.0 11.0 0.00 0.00 0.00 38 1011.8
20260505210502 79 222 0.0 12.0 0.00 0.00 0.00 37 1012.0
20260505210009 80 209 0.0 12.0 0.00 0.00 0.00 36 1012.0
20260505205602 80 159 0.0 12.0 0.00 0.00 0.00 35 1012.0
20260505205002 81 202 2.0 15.0 0.00 0.00 0.00 34 1012.0
20260505204509 81 176 2.0 15.0 0.00 0.00 0.00 34 1012.0
20260505204102 81 210 1.0 12.0 0.00 0.00 0.00 35 1012.0
20260505203502 81 224 0.0 18.0 0.00 0.00 0.00 34 1012.0
20260505203018 81 212 4.0 18.0 0.00 0.00 0.00 34 1012.0
20260505202603 81 183 0.0 7.0 0.00 0.00 0.00 34 1011.9
20260505202006 81 154 1.0 7.0 0.00 0.00 0.00 35 1012.0
20260505201511 81 153 0.0 10.0 0.00 0.00 0.00 34 1011.9
20260505201102 80 157 0.0 11.0 0.00 0.00 0.00 37 1012.1
20260505200503 80 155 1.0 11.0 0.00 0.00 0.00 36 1012.1
20260505200008 80 195 0.0 15.0 0.00 0.00 0.00 35 1012.2
20260505195602 81 186 1.0 15.0 0.00 0.00 0.00 35 1012.2
20260505195002 81 194 2.0 12.0 0.00 0.00 0.00 33 1012.4
20260505194509 81 184 1.0 8.0 0.00 0.00 0.00 34 1012.5
20260505194103 82 283 3.0 14.0 0.00 0.00 0.00 32 1012.5
20260505193502 81 208 3.0 14.0 0.00 0.00 0.00 33 1012.6
20260505193010 81 224 2.0 7.0 0.00 0.00 0.00 36 1012.5
20260505192602 81 162 0.0 6.0 0.00 0.00 0.00 34 1012.6
20260505192005 81 167 0.0 6.0 0.00 0.00 0.00 36 1012.8
20260505191508 81 141 0.0 19.0 0.00 0.00 0.00 36 1012.7
20260505191103 81 164 1.0 19.0 0.00 0.00 0.00 35 1012.8
20260505190504 81 202 4.0 16.0 0.00 0.00 0.00 37 1013.0
20260505190008 81 143 1.0 7.0 0.00 0.00 0.00 36 1013.1
20260505185604 81 172 0.0 11.0 0.00 0.00 0.00 38 1013.1
20260505185003 80 167 0.0 14.0 0.00 0.00 0.00 36 1013.2
20260505184509 80 129 2.0 14.0 0.00 0.00 0.00 36 1013.4
20260505184102 80 151 3.0 18.0 0.00 0.00 0.00 37 1013.5
20260505183503 80 156 1.0 18.0 0.00 0.00 0.00 36 1013.7
20260505183009 80 194 0.0 11.0 0.00 0.00 0.00 38 1013.7
20260505182602 80 154 1.0 11.0 0.00 0.00 0.00 38 1013.7
20260505182002 79 143 0.0 9.0 0.00 0.00 0.00 37 1013.8
20260505181509 79 174 1.0 9.0 0.00 0.00 0.00 40 1013.8
20260505181104 79 194 0.0 6.0 0.00 0.00 0.00 38 1013.8
20260505180502 79 214 0.0 6.0 0.00 0.00 0.00 41 1013.9
20260505180009 79 171 0.0 6.0 0.00 0.00 0.00 41 1013.9
20260505175602 79 226 0.0 5.0 0.00 0.00 0.00 42 1013.9
20260505175004 78 165 1.0 4.0 0.00 0.00 0.00 41 1014.1
20260505174508 78 209 0.0 2.0 0.00 0.00 0.00 42 1014.0
20260505174104 78 183 0.0 6.0 0.00 0.00 0.00 40 1014.0
20260505173503 78 142 0.0 9.0 0.00 0.00 0.00 42 1014.1
20260505173008 78 135 0.0 9.0 0.00 0.00 0.00 40 1014.1
20260505172605 77 201 0.0 9.0 0.00 0.00 0.00 41 1014.1
20260505172003 77 162 0.0 11.0 0.00 0.00 0.00 45 1014.3
20260505171509 77 219 0.0 5.0 0.00 0.00 0.00 42 1014.2
20260505171104 77 204 0.0 5.0 0.00 0.00 0.00 42 1014.4
20260505170504 78 157 0.0 10.0 0.00 0.00 0.00 40 1014.4
20260505170016 78 146 2.0 9.0 0.00 0.00 0.00 41 1014.4
20260505165603 78 147 0.0 8.0 0.00 0.00 0.00 41 1014.4
20260505165002 79 188 1.0 7.0 0.00 0.00 0.00 40 1014.4
20260505164509 78 235 0.0 2.0 0.00 0.00 0.00 43 1014.5
20260505164103 78 191 0.0 3.0 0.00 0.00 0.00 44 1014.5
20260505163502 78 143 0.0 3.0 0.00 0.00 0.00 44 1014.5
20260505163011 78 183 0.0 2.0 0.00 0.00 0.00 45 1014.5
20260505162603 77 194 0.0 3.0 0.00 0.00 0.00 47 1014.6
20260505162003 77 224 0.0 4.0 0.00 0.00 0.00 44 1014.6
20260505161509 77 192 0.0 1.0 0.00 0.00 0.00 45 1014.6
20260505161102 77 181 0.0 5.0 0.00 0.00 0.00 49 1014.7
20260505160503 76 152 0.0 13.0 0.00 0.00 0.00 49 1014.8
20260505153008 74 171 0.0 5.0 0.00 0.00 0.00 51 1015.0
20260505152602 74 154 0.0 5.0 0.00 0.00 0.00 54 1014.9
20260505152004 74 195 0.0 2.0 0.00 0.00 0.00 53 1015.1
20260505151509 73 198 0.0 8.0 0.00 0.00 0.00 54 1015.0
20260505151105 73 174 0.0 8.0 0.00 0.00 0.00 53 1015.0
20260505150505 73 195 0.0 2.0 0.00 0.00 0.00 55 1015.0
20260505140502 66 208 0.0 2.0 0.00 0.00 0.00 67 1015.0
20260505125004 59 198 0.0 8.0 0.00 0.00 0.00 79 1015.1
20260505124509 58 188 0.0 4.0 0.00 0.00 0.00 81 1015.1
20260505124103 57 186 0.0 3.0 0.00 0.00 0.00 82 1015.0
20260505123502 57 176 0.0 0.0 0.00 0.00 0.00 83 1014.9
20260505123009 56 186 0.0 0.0 0.00 0.00 0.00 84 1015.0
20260505122602 56 159 0.0 0.0 0.00 0.00 0.00 85 1014.9
20260505122003 55 170 0.0 0.0 0.00 0.00 0.00 86 1015.0
20260505121510 55 247 0.0 0.0 0.00 0.00 0.00 86 1014.9
20260505121102 54 183 0.0 0.0 0.00 0.00 0.00 87 1014.9
20260505120503 54 203 0.0 0.0 0.00 0.00 0.00 88 1014.9
20260505120030 53 198 0.0 0.0 0.00 0.00 0.00 88 1014.9
20260505115602 52 208 0.0 0.0 0.00 0.00 0.00 89 1015.0
20260505115003 52 207 0.0 0.0 0.00 0.00 0.00 89 1014.9
20260505114511 52 199 0.0 0.0 0.00 0.00 0.00 89 1014.8
20260505114102 51 183 0.0 0.0 0.00 0.00 0.00 89 1014.7
20260505113502 51 185 0.0 0.0 0.00 0.00 0.00 89 1014.8
20260505113008 51 228 0.0 0.0 0.00 0.00 0.00 89 1014.8
20260505112602 51 196 0.0 0.0 0.00 0.00 0.00 88 1014.6
20260505112002 51 195 0.0 0.0 0.00 0.00 0.00 88 1014.7
20260505111509 51 195 0.0 0.0 0.00 0.00 0.00 88 1014.6
20260505111103 51 195 0.0 0.0 0.00 0.00 0.00 88 1014.6
20260505110502 51 195 0.0 0.0 0.00 0.00 0.00 88 1014.7
20260505102006 51 238 0.0 0.0 0.00 0.00 0.00 85 1014.5
20260505101519 51 238 0.0 0.0 0.00 0.00 0.00 85 1014.5
20260505101104 51 238 0.0 0.0 0.00 0.00 0.00 85 1014.5
20260505100503 51 238 0.0 0.0 0.00 0.00 0.00 84 1014.5
20260505100019 52 238 0.0 0.0 0.00 0.00 0.00 84 1014.4
20260505095603 52 238 0.0 0.0 0.00 0.00 0.00 84 1014.4
20260505095003 52 238 0.0 0.0 0.00 0.00 0.00 83 1014.4
20260505094510 52 238 0.0 0.0 0.00 0.00 0.00 83 1014.3
20260505094104 52 238 0.0 0.0 0.00 0.00 0.00 83 1014.3
20260505093504 52 238 0.0 0.0 0.00 0.00 0.00 83 1014.3
20260505093009 52 238 0.0 0.0 0.00 0.00 0.00 83 1014.3
20260505092604 52 238 0.0 0.0 0.00 0.00 0.00 83 1014.2
20260505092003 53 238 0.0 0.0 0.00 0.00 0.00 82 1014.1
20260505091522 53 238 0.0 0.0 0.00 0.00 0.00 82 1014.1
20260505091105 53 238 0.0 0.0 0.00 0.00 0.00 82 1013.9
20260505090503 53 195 0.0 0.0 0.00 0.00 0.00 81 1013.8
20260505090026 53 195 0.0 0.0 0.00 0.00 0.00 81 1013.9
20260505085604 53 195 0.0 0.0 0.00 0.00 0.00 81 1013.9
20260505085004 54 195 0.0 0.0 0.00 0.00 0.00 80 1013.8
20260505084510 54 195 0.0 0.0 0.00 0.00 0.00 79 1013.8
20260505084103 54 195 0.0 0.0 0.00 0.00 0.00 79 1013.8
20260505083507 54 195 0.0 0.0 0.00 0.00 0.00 78 1013.8
20260505083009 54 195 0.0 0.0 0.00 0.00 0.00 78 1013.7
20260505082604 55 195 0.0 0.0 0.00 0.00 0.00 78 1013.7
20260505082004 55 195 0.0 0.0 0.00 0.00 0.00 77 1013.6
20260505081514 55 195 0.0 0.0 0.00 0.00 0.00 76 1013.6
20260505081104 55 195 0.0 0.0 0.00 0.00 0.00 77 1013.6
20260505080504 55 195 0.0 0.0 0.00 0.00 0.00 76 1013.5
20260505080010 55 180 0.0 0.0 0.00 0.00 0.00 75 1013.5
20260505075603 55 180 0.0 0.0 0.00 0.00 0.00 76 1013.4
20260505075003 55 181 0.0 0.0 0.00 0.00 0.00 75 1013.5
20260505074510 56 181 0.0 0.0 0.00 0.00 0.00 74 1013.4
20260505074105 56 184 0.0 0.0 0.00 0.00 0.00 74 1013.4
20260505073503 56 200 0.0 0.0 0.00 0.00 0.00 74 1013.4
20260505073014 56 162 0.0 0.0 0.00 0.00 0.00 74 1013.4
20260505072605 56 162 0.0 0.0 0.00 0.00 0.00 73 1013.4
20260505072003 56 162 0.0 0.0 0.00 0.00 0.00 73 1013.4
20260505071516 56 161 0.0 0.0 0.00 0.00 0.00 72 1013.3
20260505071104 56 161 0.0 0.0 0.00 0.00 0.00 73 1013.4
20260505070507 56 160 0.0 0.0 0.00 0.00 0.00 72 1013.3
20260505070010 56 191 0.0 0.0 0.00 0.00 0.00 71 1013.3
20260505065604 56 191 0.0 0.0 0.00 0.00 0.00 70 1013.4
20260505065004 56 169 0.0 1.0 0.00 0.00 0.00 71 1013.3
20260505064525 56 190 0.0 1.0 0.00 0.00 0.00 70 1013.3
20260505064103 56 179 0.0 0.0 0.00 0.00 0.00 69 1013.3
20260505063503 56 181 0.0 2.0 0.00 0.00 0.00 69 1013.3
20260505063010 57 193 0.0 2.0 0.00 0.00 0.00 68 1013.3
20260505062604 57 193 0.0 0.0 0.00 0.00 0.00 68 1013.3
20260505062003 57 193 0.0 1.0 0.00 0.00 0.00 67 1013.3
20260505061524 57 193 0.0 0.0 0.00 0.00 0.00 66 1013.4
20260505061104 57 193 0.0 0.0 0.00 0.00 0.00 65 1013.4
20260505060503 58 193 0.0 1.0 0.00 0.00 0.00 65 1013.4
20260505060010 58 193 0.0 1.0 0.00 0.00 0.00 64 1013.4
20260505055604 58 193 0.0 1.0 0.00 0.00 0.00 64 1013.4
20260505055006 58 188 0.0 1.0 0.00 0.00 0.00 63 1013.4
20260505054509 58 175 0.0 1.0 0.00 0.00 0.00 63 1013.3
20260505054103 58 175 0.0 1.0 0.00 0.00 0.00 62 1013.2
20260505053507 58 191 0.0 0.0 0.00 0.00 0.00 61 1013.3
20260505053009 58 228 0.0 0.0 0.00 0.00 0.00 61 1013.3
20260505052604 58 229 0.0 0.0 0.00 0.00 0.00 62 1013.4
20260505052002 58 191 0.0 0.0 0.00 0.00 0.00 63 1013.5
20260505051510 58 191 0.0 1.0 0.00 0.00 0.00 61 1013.5
20260505051105 58 191 0.0 1.0 0.00 0.00 0.00 61 1013.6
20260505050503 58 191 0.0 0.0 0.00 0.00 0.00 61 1013.6
20260505041512 57 235 0.0 0.0 0.00 0.00 0.00 66 1013.5
20260505041103 57 160 0.0 0.0 0.00 0.00 0.00 66 1013.4
20260505040511 57 160 0.0 0.0 0.00 0.00 0.00 67 1013.4
20260505035503 57 160 0.0 0.0 0.00 0.00 0.00 67 1013.4
20260505035010 57 160 0.0 0.0 0.00 0.00 0.00 66 1013.5
20260505034603 57 160 0.0 0.0 0.00 0.00 0.00 64 1013.5
20260505034006 58 160 0.0 0.0 0.00 0.00 0.00 64 1013.5
20260505033510 58 160 0.0 0.0 0.00 0.00 0.00 63 1013.5
20260505033105 58 160 0.0 0.0 0.00 0.00 0.00 62 1013.6
20260505032504 58 160 0.0 0.0 0.00 0.00 0.00 62 1013.6
20260505032011 58 160 0.0 0.0 0.00 0.00 0.00 61 1013.6
20260505031611 58 160 0.0 0.0 0.00 0.00 0.00 61 1013.7
20260505031003 58 198 0.0 0.0 0.00 0.00 0.00 61 1013.6
20260505030510 59 198 0.0 0.0 0.00 0.00 0.00 60 1013.6
20260505025504 59 198 0.0 0.0 0.00 0.00 0.00 59 1013.6
20260505025009 59 198 0.0 0.0 0.00 0.00 0.00 58 1013.6
20260505024603 59 198 0.0 0.0 0.00 0.00 0.00 60 1013.6
20260505024009 60 198 0.0 0.0 0.00 0.00 0.00 59 1013.6
20260505023603 60 198 0.0 0.0 0.00 0.00 0.00 59 1013.6
20260505023006 60 198 0.0 0.0 0.00 0.00 0.00 59 1013.5
20260505022509 60 198 0.0 0.0 0.00 0.00 0.00 59 1013.5
20260505022104 60 198 0.0 0.0 0.00 0.00 0.00 58 1013.4
20260505021504 60 198 0.0 0.0 0.00 0.00 0.00 57 1013.4
20260505021012 60 198 0.0 0.0 0.00 0.00 0.00 57 1013.4
20260505020603 60 198 0.0 0.0 0.00 0.00 0.00 57 1013.4
20260505020003 60 198 0.0 0.0 0.00 0.00 0.00 57 1013.4
20260505015513 61 198 0.0 0.0 0.00 0.00 0.00 59 1013.4
20260505015103 61 198 0.0 0.0 0.00 0.00 0.00 58 1013.4
20260505014502 61 198 0.0 0.0 0.00 0.00 0.00 59 1013.4
20260505014015 61 198 0.0 0.0 0.00 0.00 0.00 59 1013.3
20260505013603 61 198 0.0 0.0 0.00 0.00 0.00 59 1013.3
20260505013003 62 198 0.0 0.0 0.00 0.00 0.00 58 1013.1
20260505012509 62 198 0.0 0.0 0.00 0.00 0.00 57 1013.1
20260505012104 62 198 0.0 0.0 0.00 0.00 0.00 58 1013.1
20260505011503 63 198 0.0 0.0 0.00 0.00 0.00 56 1013.0
20260505011009 63 198 0.0 0.0 0.00 0.00 0.00 55 1012.9
20260505010604 63 198 0.0 0.0 0.00 0.00 0.00 54 1012.8
20260505010003 64 198 0.0 0.0 0.00 0.00 0.00 52 1012.7
20260505005509 64 198 0.0 0.0 0.00 0.00 0.00 52 1012.7
20260505005104 65 198 0.0 0.0 0.00 0.00 0.00 52 1012.6
20260505004502 65 198 0.0 0.0 0.00 0.00 0.00 50 1012.6
20260505004009 66 198 0.0 0.0 0.00 0.00 0.00 49 1012.6
20260505003603 66 198 0.0 0.0 0.00 0.00 0.00 49 1012.5
20260505003002 67 198 0.0 0.0 0.00 0.00 0.00 49 1012.5
20260505002514 67 198 0.0 0.0 0.00 0.00 0.00 47 1012.5
20260505002104 68 198 0.0 0.0 0.00 0.00 0.00 47 1012.5
20260505001503 68 198 0.0 0.0 0.00 0.00 0.00 47 1012.4
20260505001017 69 198 0.0 0.0 0.00 0.00 0.00 46 1012.3
20260505000603 69 198 0.0 0.0 0.00 0.00 0.00 46 1012.4
20260505000007 69 198 0.0 0.0 0.00 0.00 0.00 44 1012.3
20260504235510 70 198 0.0 0.0 0.00 0.00 0.00 45 1012.2
20260504235104 70 198 0.0 0.0 0.00 0.00 0.00 45 1012.1
20260504234505 71 198 0.0 0.0 0.00 0.00 0.00 43 1012.1
20260504234009 71 198 0.0 0.0 0.00 0.00 0.00 43 1012.0